Tracking 30970 objects as of 3-Jul-2025
HD Live streaming from Space Station
objects crossing your sky now

CZ-2 DEB

Track CZ-2 DEB now!
10-day predictions


NORAD ID: 38662
Int'l Code: 2012-029D
Perigee: 1,094.5 km
Apogee: 1,293.0 km
Inclination: 100.5 °
Period: 109.1 minutes
Semi major axis: 7564 km
RCS: 0.003 m2 (small)
Launch date: May 29, 2012
Source: People's Republic of China (PRC)
Launch site: Taiyaun Space Center, China (TSC)

Note: This is SATELLITE DEBRIS
Your satellite tracking list
DELTA 2 DEB (DPAF)
Track 1 satellite(s)




NASA's NSSDC Master Catalog

Two Line Element Set (TLE):
1 38662U 12029D   25183.06071872  .00000016  00000-0  14306-3 0  9993
2 38662 100.4551 296.0784 0131173  82.4812 279.1182 13.19510624627287
Source of the keplerian elements: AFSPC